CZ-4 DEB

基本信息
目录编号:
20883
目录名称:
CZ-4 DEB
国际标识:
1990-081AT
轨道中心:
EARTH
物体状态:
在轨
发射日期:
1990-09-03 UTC
轨道信息
数据来源: 国际轨道数据
星历时间: 2026-07-13T20:40:43+0800
半长轴: 7141.199km
偏心率: 0.0009846
轨道倾角: 98.591°
近地点辐角: 294.058°
升交点赤经: 194.167°
平近点角: 192.345°
近地点: 756.03km
远地点: 770.094km
周期: 100.096分钟
每日圈数: 14.386201
详细信息
发射场:
TSC
轨道高度:
LEO
数据来源:
AOE Integration Group
参考系:
TEME
时间系统:
UTC
历元类型:
SGP4
2D轨道图
3D轨道图
轨道高度分析图
轨道倾角分析图
轨道综合分析图
查看轨道综合分析图